[[{"header":{"parameterUnit":"m.s-1","parameterCategory":1,"la1":30.2991,"la2":30.254,"lo1":-89.0895,"lo2":-89.0444,"dy":0.0017,"dx":0.0017,"nx":28,"ny":28,"refTime":"2024-07-07T21:00:00:Z","depth":0,"parameterNumber":2,"parameterNumberName":"U-component_of_WINDS"},"data":[0,0,0,0,0,0,0,0,0,0,0,0,0,0,0,0,0,0,0,0,0,0,0,0,0,0,0,0,0,0,0,0,0,0,0,0,0,0,0,0,0,0,0,0,0,0,0,0,0,0,0,0,0,0,0,0,0,0,-3.4077,-3.4077,0,-3.4076,-3.4076,-3.4076,-3.4042,-3.4041,-3.404,-3.4039,-3.4038,-3.4038,-3.4039,0,0,0,0,0,0,0,0,0,0,0,0,0,-3.4049,-3.405,-3.4077,-3.4077,-3.4077,-3.4076,-3.4076,-3.4076,-3.4042,-3.4041,-3.404,-3.4039,-3.4037,-3.4038,-3.4039,0,0,0,0,0,0,0,0,0,0,0,0,0,-3.4056,-3.405,-3.4077,-3.406,-3.4058,-3.4076,-3.4076,-3.4076,-3.4042,-3.4041,-3.4039,-3.4038,-3.4037,-3.4038,-3.4039,-3.4073,0,0,-3.4043,-3.4043,0,0,0,0,0,0,0,0,-3.4056,-3.4057,-3.4062,-3.4061,-3.4059,-3.4057,-3.4065,-3.4075,-3.4042,-3.4048,-3.4039,-3.4037,-3.4045,-3.4046,-3.4048,-3.4073,-3.4073,-3.4043,-3.4044,-3.4044,-3.4045,0,0,0,0,0,0,0,-3.4055,-3.4057,-3.4076,-3.4062,-3.4061,-3.4052,-3.4051,-3.4067,-3.4054,-3.4047,-3.4045,-3.4045,-3.4044,-3.4047,-3.4048,-3.4073,-3.4043,-3.4044,-3.4045,-3.4045,-3.4124,-3.4125,0,0,0,0,0,0,-3.4057,-3.4057,-3.4076,-3.4076,-3.4054,-3.4054,-3.4053,-3.4059,-3.4054,-3.4052,-3.4046,-3.4044,-3.4046,-3.4047,-3.4048,-3.4085,-3.4044,-3.4045,-3.4046,-3.4122,-3.4124,-3.4125,0,0,0,0,0,0,-3.4057,-3.4059,-3.4077,-3.4066,-3.4067,-3.4055,-3.4063,-3.406,-3.4063,-3.4053,-3.4051,-3.4052,-3.4045,-3.4046,-3.4067,-3.4085,-3.4046,-3.4047,-3.4121,-3.4123,-3.4125,-3.4161,0,0,0,0,0,0,-3.4056,-3.4059,-3.4072,-3.4066,-3.4068,-3.4096,-3.4064,-3.4061,-3.4065,-3.4062,-3.4058,-3.4056,-3.4044,-3.4065,-3.4068,-3.4086,-3.4048,-3.4119,-3.4122,-3.4124,-3.4159,-3.4165,-3.417,0,0,0,0,0,-3.4055,-3.4083,-3.4073,-3.4075,-3.4084,-3.4097,-3.4098,-3.4084,-3.4067,-3.4079,-3.4073,-3.4056,-3.4083,-3.4067,-3.407,-3.4089,-3.4118,-3.4121,-3.4124,-3.4156,-3.4163,-3.417,0,0,0,0,0,0,-3.4091,-3.4082,-3.4071,-3.4097,-3.4098,-3.4091,-3.4106,-3.4092,-3.4098,-3.4094,-3.4076,-3.4076,-3.4099,-3.4096,-3.4079,-3.412,-3.4097,-3.4101,-3.4121,-3.4128,-3.4133,-3.4132,-3.4049,0,0,0,0,0,-3.4102,-3.4113,-3.4105,-3.4129,-3.413,-3.4118,-3.4124,-3.4113,-3.4113,-3.4113,-3.4108,-3.4108,-3.4116,-3.4122,-3.413,-3.4159,-3.4156,-3.4173,-3.4179,-3.4183,-3.4186,-3.4199,-3.4206,-3.4136,-3.4135,-3.4135,0,0,-3.4125,-3.4121,-3.413,-3.4136,-3.4136,-3.4147,-3.4119,-3.4133,-3.414,-3.4115,-3.4133,-3.413,-3.4129,-3.4153,-3.4164,-3.4152,-3.4205,-3.4187,-3.4191,-3.4191,-3.4203,-3.421,-3.4216,-3.4138,-3.4137,-3.4137,0,0,-3.4172,-3.4171,-3.4191,-3.419,-3.4189,-3.4181,-3.4186,-3.4181,-3.4177,-3.4196,-3.4176,-3.4186,-3.4201,-3.4201,-3.4203,-3.425,-3.4233,-3.4253,-3.4281,-3.4294,-3.43,-3.4304,-3.4319,-3.4325,-3.4256,-3.4256,-3.4256,0,-3.42,-3.4217,-3.4202,-3.4217,-3.422,-3.4197,-3.4216,-3.4217,-3.4218,-3.4221,-3.4208,-3.4225,-3.4224,-3.4247,-3.4258,-3.4261,-3.4265,-3.4252,-3.43,-3.4305,-3.4309,-3.4322,-3.4328,-3.4258,-3.4258,-3.4258,-3.4258,0,-3.4251,-3.4263,-3.4278,-3.428,-3.4285,-3.4302,-3.4289,-3.4296,-3.4285,-3.4278,-3.4297,-3.4294,-3.4299,-3.4305,-3.4294,-3.4326,-3.4318,-3.4303,-3.4279,-3.4318,-3.433,-3.4336,-3.4261,-3.4261,-3.426,-3.4259,0,0,-3.4319,-3.4312,-3.4318,-3.4318,-3.4315,-3.4324,-3.4339,-3.4345,-3.435,-3.4352,-3.4364,-3.4377,-3.4363,-3.4365,-3.4355,-3.4367,-3.4401,-3.435,-3.4349,-3.4357,-3.4434,-3.4443,-3.445,-3.4392,-3.4393,-3.4393,-3.4433,0,-3.4363,-3.4388,-3.4375,-3.4402,-3.4412,-3.4391,-3.4404,-3.4404,-3.4398,-3.4405,-3.4399,-3.4408,-3.4389,-3.439,-3.4401,-3.4395,-3.4416,-3.4392,-3.4401,-3.4401,-3.4399,-3.4456,-3.4467,-3.4504,-3.4438,-3.4439,-3.4439,0,-3.4417,-3.442,-3.4448,-3.4442,-3.4446,-3.4458,-3.4461,-3.4469,-3.4468,-3.4462,-3.4465,-3.4451,-3.4466,-3.4444,-3.4462,-3.4446,-3.4449,-3.4447,-3.4448,-3.4446,-3.4421,-3.4454,-3.4516,-3.4521,-3.4447,-3.4447,-3.4446,0,-3.4461,-3.4473,-3.449,-3.4491,-3.4486,-3.4494,-3.4492,-3.449,-3.4494,-3.4497,-3.4498,-3.4504,-3.4506,-3.451,-3.4498,-3.4483,-3.4517,-3.4495,-3.4512,-3.4512,-3.4518,-3.4518,-3.4579,-3.4524,-3.4524,-3.4524,-3.4524,0,-3.4509,-3.4527,-3.451,-3.452,-3.4539,-3.4524,-3.4543,-3.4539,-3.4537,-3.4546,-3.4529,-3.4537,-3.4522,-3.4529,-3.452,-3.4536,-3.4538,-3.4533,-3.453,-3.4533,-3.4533,-3.4533,-3.4529,-3.4526,-3.4525,-3.4525,-3.4525,0,-3.4561,-3.4551,-3.4568,-3.4561,-3.456,-3.4573,-3.4567,-3.4577,-3.457,-3.4581,-3.4583,-3.4573,-3.458,-3.4569,-3.4576,-3.4569,-3.459,-3.4584,-3.459,-3.4587,-3.4605,-3.4602,-3.4666,-3.4673,-3.4616,-3.4617,-3.4617,0,-3.4591,-3.4604,-3.4598,-3.4603,-3.4602,-3.461,-3.4613,-3.4599,-3.4603,-3.4603,-3.4612,-3.4618,-3.4621,-3.4634,-3.4627,-3.4631,-3.4624,-3.4646,-3.4625,-3.4627,-3.4622,-3.462,-3.462,-3.465,-3.4651,-3.4651,-3.4652,0,-3.4646,-3.464,-3.4645,-3.4649,-3.4653,-3.4655,-3.4656,-3.4661,-3.4647,-3.4652,-3.4659,-3.4662,-3.4668,-3.4674,-3.4677,-3.4674,-3.466,-3.4659,-3.4663,-3.4665,-3.4667,-3.4664,-3.46,-3.4657,-3.4657,-3.4656,-3.4656,-3.4656,-3.4686,-3.4696,-3.4693,-3.4699,-3.4698,-3.4699,-3.4707,-3.4701,-3.4706,-3.471,-3.4702,-3.4711,-3.4708,-3.471,-3.471,-3.4716,-3.4706,-3.4712,-3.4713,-3.4715,-3.4716,-3.4668,-3.4717,-3.4717,-3.4716,-3.4716,-3.4716,0,-3.4738,-3.4735,-3.4741,-3.4742,-3.4747,-3.4734,-3.4734,-3.4738,-3.4746,-3.4745,-3.4749,-3.4757,-3.4762,-3.4755,-3.4759,-3.4765,-3.4759,-3.4766,-3.4765,-3.4764,-3.4726,-3.4721,-3.4771,-3.4771,-3.4771,-3.4771,-3.4771,-3.4771,-3.4765,-3.478,-3.4773,-3.4787,-3.4784,-3.4792,-3.4793,-3.4793,-3.4792,-3.4801,-3.4805,-3.4801,-3.4797,-3.4801,-3.4805,-3.4802,-3.4804,-3.4813,-3.4808,-3.4772,-3.4767,-3.4762,-3.4757,-3.4814,-3.4814,-3.4846,-3.4846,-3.4846]},{"header":{"parameterUnit":"m.s-1","parameterCategory":1,"la1":30.2991,"la2":30.254,"lo1":-89.0895,"lo2":-89.0444,"dy":0.0017,"dx":0.0017,"nx":28,"ny":28,"refTime":"2024-07-07T21:00:00:Z","depth":0,"parameterNumber":3,"parameterNumberName":"V-component_of_WINDS"},"data":[0,0,0,0,0,0,0,0,0,0,0,0,0,0,0,0,0,0,0,0,0,0,0,0,0,0,0,0,0,0,0,0,0,0,0,0,0,0,0,0,0,0,0,0,0,0,0,0,0,0,0,0,0,0,0,0,0,0,6.0688,6.0688,0,6.0775,6.0776,6.0776,6.0711,6.0708,6.0705,6.0703,6.0786,6.0791,6.0796,0,0,0,0,0,0,0,0,0,0,0,0,0,6.0459,6.0463,6.0687,6.0689,6.069,6.0774,6.0776,6.0777,6.0711,6.0708,6.0705,6.0701,6.0785,6.079,6.0796,0,0,0,0,0,0,0,0,0,0,0,0,0,6.0553,6.0465,6.0687,6.0667,6.0666,6.0774,6.0776,6.0777,6.0712,6.0708,6.0704,6.07,6.0783,6.079,6.0797,6.0927,0,0,6.0819,6.0823,0,0,0,0,0,0,0,0,6.0548,6.0561,6.0669,6.0669,6.0668,6.0728,6.0725,6.0827,6.0713,6.0695,6.0703,6.0698,6.077,6.0778,6.0803,6.0931,6.0935,6.082,6.0825,6.0828,6.083,0,0,0,0,0,0,0,6.0541,6.0557,6.0722,6.0671,6.067,6.0652,6.0661,6.0744,6.0755,6.0696,6.0691,6.0703,6.0769,6.0797,6.0805,6.0936,6.082,6.0826,6.0831,6.0834,6.1173,6.1178,0,0,0,0,0,0,6.0537,6.0552,6.0719,6.0724,6.0596,6.066,6.0669,6.0713,6.0754,6.0756,6.0706,6.07,6.0786,6.0797,6.0808,6.0962,6.0828,6.0834,6.0839,6.1169,6.1174,6.1179,0,0,0,0,0,0,6.0533,6.0553,6.0715,6.0637,6.0656,6.0668,6.0717,6.0717,6.0745,6.0762,6.0763,6.0734,6.0783,6.0797,6.0898,6.0964,6.0838,6.0844,6.1163,6.117,6.1177,6.1271,0,0,0,0,0,0,6.0526,6.0552,6.0603,6.0639,6.0661,6.0807,6.0721,6.0721,6.0758,6.075,6.0787,6.0789,6.0781,6.0888,6.0905,6.0971,6.085,6.1157,6.1166,6.1174,6.1262,6.1281,6.1296,0,0,0,0,0,6.0519,6.0625,6.0606,6.0626,6.0725,6.081,6.0823,6.0812,6.0764,6.0814,6.0825,6.0788,6.0954,6.0898,6.0918,6.0987,6.1153,6.1164,6.1174,6.1255,6.1277,6.1296,0,0,0,0,0,0,6.0594,6.0629,6.0608,6.073,6.0768,6.0799,6.0863,6.0837,6.0888,6.0878,6.0861,6.087,6.0976,6.0991,6.0929,6.1114,6.1045,6.106,6.11,6.1122,6.1138,6.1132,6.0856,0,0,0,0,0,6.0626,6.0694,6.072,6.0825,6.0845,6.0851,6.0888,6.0876,6.0914,6.0929,6.0947,6.0984,6.1044,6.1084,6.114,6.1265,6.1271,6.1322,6.1339,6.1353,6.1365,6.1431,6.1453,6.1213,6.1213,6.1213,0,0,6.069,6.0718,6.0762,6.0841,6.0869,6.0938,6.0865,6.0941,6.0991,6.094,6.1037,6.1051,6.1091,6.1204,6.1254,6.122,6.1433,6.1366,6.1377,6.1382,6.1444,6.1466,6.1486,6.122,6.1219,6.1218,0,0,6.0843,6.0872,6.0962,6.0992,6.1036,6.1039,6.106,6.1096,6.1104,6.1201,6.1164,6.1222,6.1327,6.1356,6.1384,6.1548,6.1516,6.1567,6.1655,6.1719,6.1738,6.1754,6.1811,6.1832,6.1579,6.158,6.158,0,6.0917,6.1022,6.1011,6.109,6.1125,6.1084,6.1173,6.1202,6.1262,6.1286,6.1247,6.1377,6.14,6.1519,6.1559,6.1584,6.1606,6.1562,6.1736,6.1753,6.1768,6.1822,6.1843,6.1585,6.1585,6.1584,6.1584,0,6.111,6.1183,6.125,6.131,6.1352,6.1436,6.1436,6.148,6.1465,6.1472,6.157,6.1597,6.1658,6.1685,6.1671,6.1801,6.1779,6.1739,6.1669,6.1797,6.1847,6.1868,6.1594,6.1592,6.159,6.1588,0,0,6.1313,6.1366,6.1391,6.1417,6.1462,6.1517,6.1598,6.1659,6.1696,6.1739,6.1805,6.1894,6.1857,6.189,6.1878,6.1934,6.206,6.1887,6.1888,6.1917,6.2204,6.2233,6.2257,6.204,6.2044,6.2047,6.22,0,6.1467,6.161,6.1603,6.1736,6.1802,6.1764,6.1834,6.1868,6.1877,6.1932,6.194,6.2003,6.195,6.1969,6.2024,6.2034,6.2117,6.2023,6.2099,6.2102,6.2089,6.2284,6.2315,6.2458,6.222,6.2223,6.2226,0,6.1666,6.1716,6.1857,6.1892,6.1919,6.1983,6.2037,6.2092,6.2129,6.213,6.2167,6.2146,6.2226,6.2155,6.2263,6.2199,6.223,6.2239,6.2244,6.225,6.2171,6.2293,6.2504,6.2525,6.2257,6.2254,6.2252,0,6.1798,6.1901,6.1998,6.2022,6.2065,6.211,6.213,6.2164,6.22,6.2247,6.227,6.2326,6.2356,6.2398,6.2391,6.2341,6.2502,6.243,6.2503,6.2504,6.2538,6.2536,6.2755,6.256,6.256,6.256,6.2559,0,6.197,6.2057,6.2058,6.2118,6.2214,6.2203,6.2297,6.2312,6.2342,6.2402,6.2372,6.2428,6.2417,6.2473,6.2469,6.2558,6.2572,6.2574,6.2572,6.2577,6.2576,6.2595,6.2585,6.2565,6.2564,6.2563,6.2562,0,6.2133,6.2138,6.2241,6.2274,6.2284,6.2353,6.238,6.2435,6.2441,6.2517,6.2534,6.2543,6.2607,6.2605,6.2678,6.2675,6.2785,6.2771,6.2773,6.2769,6.2842,6.2835,6.3081,6.3112,6.2898,6.29,6.2901,0,6.2242,6.2309,6.2349,6.2388,6.2411,6.2474,6.2512,6.2503,6.2543,6.259,6.264,6.2702,6.275,6.2855,6.2866,6.2921,6.2907,6.299,6.2915,6.2918,6.2907,6.2903,6.2908,6.3004,6.3007,6.3009,6.301,0,6.2435,6.2434,6.249,6.2548,6.2594,6.2638,6.2678,6.2711,6.2707,6.2753,6.2819,6.2858,6.2932,6.2993,6.3046,6.3064,6.3036,6.3034,6.3053,6.3058,6.3056,6.3057,6.2811,6.3028,6.3026,6.3025,6.3024,6.3023,6.2574,6.2631,6.2668,6.2731,6.2761,6.2799,6.2853,6.2866,6.2921,6.2982,6.2973,6.3047,6.3081,6.3149,6.3172,6.3228,6.3198,6.3227,6.3234,6.3241,6.3248,6.3048,6.3237,6.3237,6.3236,6.3236,6.3236,0,6.2764,6.2786,6.2844,6.2903,6.2952,6.2923,6.2966,6.3009,6.3075,6.311,6.3159,6.3234,6.3293,6.3309,6.3365,6.3407,6.3395,6.3422,6.3418,6.3422,6.3272,6.3249,6.343,6.343,6.343,6.343,6.343,6.343,6.2868,6.2963,6.2966,6.3073,6.3094,6.3167,6.3194,6.3229,6.3256,6.3342,6.3392,6.3402,6.3429,6.3487,6.3539,6.3542,6.3563,6.3595,6.3593,6.3452,6.3433,6.3414,6.3392,6.36,6.36,6.3737,6.3739,6.374]}]]